Starlink 32842

operational
NORAD ID: 62822 Int'l Des: 2025-018 Owner: SPXS Country: US Constellation: starlink
LEOCIRCULAR

About Starlink 32842

Description loading...

Live Position

Loading 3D Globe...

Upcoming Passes

Altitude History

Altitude vs Time

uPlot chart will show altitude changes over time

Two-Line Element Set

1 62822U 25018S 26102.16054978 .00006937 00000-0 24631-3 0 9991
2 62822 53.1570 154.0735 0000778 24.0911 336.0126 15.30173453 68307
Epoch: Apr 12, 2026 • Age: 16 hours

Current Status

Altitude 477.9 km
Velocity 7.63 km/s
Sub-Earth Point 34.65°N, 157.15°E
Launch Date Jan 24, 2025
Age 1.2 years
Type internet

Technical Details

Classification Payload
Mass 730.00 kg
Dry Mass 700.00 kg
Total Mass 730.00 kg
Length 0.30 m
Diameter 4.10 m
Span 29.00 m
Shape Box + pan
Manufacturer SPXS
Bus Type Starlink V2M
Phase Status In Orbit
Owner/State SPXS/US

Large Constellations

Loading constellations...